Other Surface Observations
Issued by NWS Upton, NY

Current Version | Previous Version | Text Only | Print | Product List | Glossary Off
Versions: 1 2 3 4 5 6 7 8 9 10 11 12 13 14 15 16 17 18 19 20 21 22 23 24 25 26 27 28 29 30 31 32 33 34 35 36 37 38 39 40 41 42 43 44 45 46 47 48 49 50
000 SXUS51 KOKX 111257 OSOOKX NEW YORK CITY METROPOLITAN AREA WEATHER ROUNDUP National Weather Service New York NY 800 AM EST SUN DEC 11 2016 CITY SKY/WX TMP DP RH WIND PRES REMARKS Central Park PTCLDY 29 15 56 W6 30.56R WCI 23 LaGuardia APRT CLOUDY 31 16 54 NW5 30.55R WCI 26 Kennedy INTL CLOUDY 30 16 56 NE3 30.56R Newark Liberty CLOUDY 28 17 63 W6 30.55R WCI 22 Teterboro APRT PTCLDY 27 17 66 SW3 30.54R Bronx Bot Gard NOT AVBL Wall St Helipt CLOUDY 30 19 64 W5 30.56R WCI 25 >>>>>>>>>>>>>>>>>>>>>>>>>>>>>>>>> KEY <<<<<<<<<<<<<<<<<<<<<<<<<<<<<<< > SKY/WX - SKY CONDITION/ : R : WCI - WIND CHILL INDEX < > PRESENT WEATHER : E : VSB - VISIBILITY IN MILES < > TMP - TEMPERATURE IN DEG F : M : HX - HEAT INDEX < > DP - DEW POINT TEMPERATURE : A : TC - TEMPERATURE IN < > RH - RELATIVE HUMIDITY : R : CELSIUS < > WIND - DIRECTION/SPEED (MPH) : K : VRB - VARIABLE WIND DIR < > PRES - PRESSURE (IN HG) : S : < >>>>>>>>>>>>>>>>>>>>>>>>>>>>>>>>> KEY <<<<<<<<<<<<<<<<<<<<<<<<<<<<<<<

USA.gov is the U.S. government's official web portal to all federal, state and local government web resources and services.